Temp_Advection
nan nan nan nan nan nan nan nan nan nan nan nan nan nan nan nan nan nan nan nan nan nan nan nan nan nan nan nan nan nan nan nan nan nan nan nan nan nan nan nan nan nan nan nan nan nan nan
nan 0 0 0 -0 -0 -0 0 0 0 0 0 0 0 0 0 0 -0 -0 -0 0 -0 -0 0 -0 -0 0 -0 0 0 -0 -0 0 -0 -0 0 0 0 0 0 -0 -0 0 0 0 -0 nan
nan 0 -0 -0 -0 -0 0 0 0 0 0 0 0 0 0 0 0 -0 -0 -0 -0 0 0 0 0 -0 0 -0 -0 -0 -0 -0 -0 -0 -0 0 0 -0 0 0 0 -0 -0 -0 -0 0 nan
nan -0 -0 -0 -0 0 0 0 0 -0 0 0 0 0 0 0 0 -0 -0 -0 0 -0 -0 0 0 -0 0 0 -0 -0 -0 -0 -0 -0 0 -0 -0 0 -0 -0 -0 -0 -0 0 -1 0 nan
nan -0 -0 -0 0 0 0 0 0 0 0 0 0 0 0 -0 -0 0 0 0 -0 0 0 -0 0 -0 0 0 -0 -0 0 0 -0 -0 -0 -0 0 -0 -0 -0 -0 -0 0 0 0 -0 nan
nan -0 -0 -0 0 0 -0 0 0 0 0 0 0 0 0 -0 -0 -0 0 0 0 -0 0 0 -0 0 0 0 0 -0 -0 0 0 0 0 -0 -0 -0 -0 -0 -0 -0 -0 -0 0 0 nan
nan -0 -0 -0 0 0 0 0 0 0 0 0 0 0 0 0 0 -0 -0 0 0 0 0 0 -0 -0 -0 -0 0 -0 -0 0 0 -0 -0 0 -0 -0 -0 -0 -0 -0 -0 -1 0 -0 nan
nan -0 -0 0 0 0 0 0 0 0 0 0 0 0 0 0 0 0 0 -0 0 0 -0 0 -0 -0 -0 -0 0 -0 -0 -0 -0 0 0 -0 0 -0 -0 -0 -0 -0 -1 -0 -0 -0 nan
nan -0 -0 0 0 0 -0 -0 0 0 0 0 0 -0 -0 -0 -0 -0 -0 0 0 -0 0 -0 0 0 -0 -0 -0 0 -0 -0 -0 -0 -0 0 -0 -0 -0 -0 -0 -0 -0 -0 -0 -1 nan
nan -0 -0 -0 -0 -0 -0 -0 -0 -0 -0 -0 0 0 -0 -0 -0 -0 -0 0 0 -0 -0 -0 -0 0 0 -0 0 0 -0 -0 -0 -0 -0 0 -0 -0 -0 -0 -0 -0 -0 -0 -0 -1 nan
nan -0 -0 -0 -0 -0 -0 -0 -0 -0 -0 -0 -0 0 -0 -0 -0 -0 -0 0 -0 0 -0 -0 -0 0 0 0 0 0 0 -0 -0 -0 -0 -0 0 0 -0 -0 0 0 0 0 -0 -0 nan
nan -0 -0 -0 -0 -0 -0 -0 -0 -0 -0 -0 -0 -0 -0 -0 -0 -0 -0 -0 0 -0 0 -0 0 -0 0 -0 -0 0 -0 -0 -0 -0 -0 0 -0 -0 -0 0 0 -0 -0 0 0 -0 nan
nan 0 -0 -0 -0 -0 -0 -0 -0 -0 -0 -0 -0 -0 -0 -0 -0 -0 -0 -0 -0 0 -0 0 0 0 -0 -0 0 -0 -0 -0 -0 -0 -0 -0 -0 -0 0 -0 -0 -0 -0 0 0 -0 nan
nan 0 0 0 -0 -0 -0 -0 -0 -0 -0 -0 -0 -0 -0 -0 -0 -0 -0 -0 -0 0 0 -0 -0 -0 -0 0 0 -0 -0 0 0 -0 -0 0 0 0 -0 -0 -0 0 -0 -0 -0 -0 nan
nan -0 -0 0 0 -0 -0 -0 -1 -1 -1 -1 -0 -0 -0 -0 -0 -0 -0 -0 -0 -0 -0 -0 -0 -0 -0 -0 -0 -0 -0 -0 0 0 -0 -0 0 -0 0 -0 -0 0 0 -0 -0 0 nan
nan -0 -0 -0 -0 -0 -0 -0 -1 -1 -1 -1 -0 -0 -0 -0 -0 -0 -0 -0 -0 -0 -0 -0 -0 -0 -0 0 0 -0 -0 -0 0 0 -0 -0 0 -0 -0 0 -0 -0 -0 0 0 -0 nan
nan -0 -0 -0 -0 -1 -0 -0 -1 -1 -1 -1 -1 0 -0 -0 0 -0 -0 0 0 0 -0 -0 -0 -0 -0 -0 -0 -0 0 -0 0 0 -0 -0 0 0 -0 -0 0 -0 -0 -0 -0 0 nan
nan -0 -0 -0 -0 -0 -0 -0 -1 -1 -1 -1 -1 -0 0 -0 -0 -0 0 0 -0 0 -0 -0 -0 -0 -0 -0 -0 -0 -0 0 0 0 -0 0 0 -0 1 -0 -0 -0 -0 1 0 0 nan
nan -0 -0 -0 -0 -0 -0 -0 -0 -0 -1 -1 -1 -0 -0 -0 -0 0 0 0 0 0 -0 0 -0 0 0 -0 -0 -0 1 -0 0 0 0 0 0 -0 0 -0 -0 -0 0 0 1 -0 nan
nan -0 -0 -0 -0 -0 -0 -0 -0 -0 -0 -0 -0 -0 0 0 -0 -0 -0 0 0 0 -0 -0 0 0 -0 -0 -0 0 0 -0 0 0 0 0 0 1 0 -1 1 1 0 0 0 -0 nan
nan -0 -0 0 -0 -0 -0 -0 -0 -0 -0 -0 -0 -0 -0 -0 0 0 -0 -0 0 1 0 -0 -0 -0 -0 -0 -0 0 0 1 0 0 0 0 1 -0 -0 -0 -0 0 1 1 -0 -1 nan
nan -0 -0 -0 -0 -1 -0 0 0 -0 -0 -0 -0 -0 -0 -1 -0 -0 -0 -0 -0 -0 0 1 0 -0 0 0 0 -0 -1 -0 1 -0 0 0 0 0 -1 -1 0 -0 -1 -1 -1 -0 nan
nan -0 -0 -0 -0 -0 -0 -0 -0 0 -0 -0 -0 0 -0 -0 -0 -0 -0 -0 0 -0 -0 0 0 -0 -0 0 0 0 -0 -0 0 1 -0 0 0 -0 -2 -0 0 -1 -2 -0 1 1 nan
nan -1 -0 -0 -0 -0 -0 -0 -0 -0 0 0 0 0 0 -0 -0 -0 -0 0 0 0 0 0 -0 -0 0 0 -0 -0 -0 -0 -1 -0 1 -0 -0 -0 -0 -0 -1 -0 -1 -1 -2 -3 nan
nan -1 -1 -1 -0 -1 -0 -0 -0 -0 0 -0 -0 0 0 -0 0 -0 -1 -1 0 0 0 0 -0 0 0 0 0 -0 -0 -0 -1 -0 1 1 -0 -0 -0 -0 -1 1 -1 -1 -1 -1 nan
nan -1 -1 -1 -1 -1 -1 -0 -0 0 -0 -0 -0 0 0 -0 -0 -1 -0 0 0 -0 -0 1 1 1 0 0 0 -0 -0 -0 -0 0 -0 -0 0 0 0 -0 1 -2 -1 -1 -1 -0 nan
nan -1 -1 -1 -1 -1 -1 -1 -0 -0 0 0 -0 -0 -0 -0 -1 0 0 0 0 0 0 -0 0 0 0 0 0 -0 -0 0 0 0 0 0 0 -0 -0 0 0 -1 -1 -1 0 -1 nan
nan -1 -1 -1 -2 -2 -2 -1 -1 -0 0 1 -0 -1 -0 -0 -0 -0 -0 0 0 0 0 0 0 0 0 -0 0 0 0 0 0 -0 0 -0 -0 0 0 1 2 -2 -0 -0 -1 -1 nan
nan nan nan nan nan nan nan nan nan nan nan nan nan nan nan nan nan nan nan nan nan nan nan nan nan nan nan nan nan nan nan nan nan nan nan nan nan nan nan nan nan nan nan nan nan nan nan
Wind_Speed
21 23 21 20 18 18 18 19 19 17 15 12 9 8 7 7 6 6 5 6 6 5 3 5 7 3 1 2 4 6 5 6 10 7 4 2 1 0 0 3 1 3 3 2 3 4 8
20 22 22 20 19 18 19 20 21 18 15 13 10 7 5 5 5 6 6 5 3 3 7 4 5 8 3 0 6 5 5 5 6 8 8 5 3 4 4 2 3 2 2 4 5 6 7
18 21 21 21 20 20 20 20 20 19 17 14 10 7 5 3 4 4 4 3 2 2 5 5 4 1 4 2 6 4 4 4 4 4 4 5 3 2 1 3 1 1 5 6 8 4 4
17 19 20 21 22 21 20 19 19 19 18 15 12 8 6 4 2 2 3 1 2 2 3 4 3 1 1 3 7 5 4 3 3 4 3 4 5 4 1 2 3 3 4 5 7 4 2
14 17 19 21 22 22 21 20 19 19 19 16 13 9 7 2 0 1 3 2 3 4 3 2 2 1 1 3 6 6 2 1 2 2 4 1 2 1 2 4 5 5 7 7 5 5 3
12 15 17 20 21 22 22 22 20 19 18 16 13 11 8 5 4 4 5 6 6 7 4 5 3 2 1 2 4 8 3 2 1 4 2 2 3 4 1 6 4 8 7 8 9 0 8
10 13 16 18 20 20 22 23 22 20 18 16 14 12 11 9 6 6 5 4 5 1 0 1 1 1 2 5 3 8 4 2 2 3 3 1 4 3 3 3 3 5 9 13 11 4 9
10 12 15 16 18 20 21 22 23 22 20 17 15 13 12 9 3 7 3 4 5 3 1 1 0 1 2 4 2 6 4 3 2 3 3 5 3 2 1 2 5 7 11 10 6 2 8
8 11 13 15 17 18 20 20 22 23 22 19 16 15 13 8 3 5 1 3 3 3 4 1 1 1 2 3 2 4 5 2 2 3 3 4 3 2 3 4 7 8 8 10 9 16 9
7 10 12 14 16 17 19 20 20 22 23 22 18 15 13 10 4 6 2 3 1 1 4 4 2 2 2 3 3 3 4 2 2 4 3 4 4 3 5 7 2 9 3 6 12 10 5
9 11 13 14 16 17 19 20 20 20 21 22 20 16 13 9 6 4 1 1 2 1 4 3 2 2 3 2 4 2 3 1 4 2 2 0 4 5 6 4 2 4 4 9 10 9 9
11 12 14 15 17 18 19 20 20 20 20 21 21 18 13 10 7 5 1 2 3 3 5 1 1 2 4 3 2 3 2 1 1 2 5 4 0 3 3 2 5 9 8 12 4 4 5
13 14 15 16 17 18 19 19 19 19 19 20 20 19 12 9 6 6 5 4 3 4 2 2 1 2 3 3 3 2 2 6 4 4 4 5 5 2 2 4 4 5 9 4 3 4 7
14 15 16 17 17 17 18 18 20 20 20 20 20 19 13 7 6 7 7 3 5 2 1 1 2 5 5 1 4 2 3 5 7 5 5 4 4 7 8 3 3 3 3 4 7 10 15
15 15 16 17 18 18 17 18 19 21 21 21 19 17 10 6 6 7 4 4 4 3 3 4 4 5 4 3 3 3 6 5 1 9 5 4 5 3 1 1 2 4 5 3 6 12 6
16 15 15 16 16 17 16 17 19 20 20 21 20 14 8 5 7 7 3 4 2 3 3 2 5 1 5 1 3 2 3 3 2 3 1 2 8 2 4 2 4 5 2 4 4 5 10
14 13 14 14 15 16 14 15 19 19 18 18 15 7 5 8 12 3 5 2 2 1 2 3 4 6 8 8 6 8 7 1 2 4 3 3 4 2 3 9 5 4 4 5 2 5 4
12 13 14 15 15 14 14 14 16 17 17 15 9 5 8 10 4 2 5 1 2 2 3 4 4 6 7 8 8 7 10 5 3 7 4 3 5 9 17 5 3 4 9 11 4 4 7
15 15 16 15 15 14 15 16 17 16 17 17 10 8 8 4 4 5 1 2 3 3 4 4 4 6 1 4 7 10 7 1 6 6 4 4 4 7 7 1 1 4 4 4 11 7 10
19 20 19 19 18 18 16 15 16 16 15 13 6 4 3 2 2 4 5 10 4 4 5 5 4 3 5 8 11 9 6 2 4 6 4 5 6 12 12 19 13 6 8 12 10 4 10
25 25 24 23 21 20 19 16 16 14 11 8 4 2 3 4 6 7 5 8 12 15 6 4 4 10 13 9 12 16 12 9 7 6 5 4 6 12 19 23 22 24 21 19 15 20 11
15 17 18 22 22 21 20 19 16 14 10 7 5 5 3 10 8 11 10 12 16 17 17 15 10 14 9 12 13 16 15 12 11 5 4 2 3 3 10 19 20 26 23 23 23 23 23
14 15 15 15 15 13 12 12 13 15 12 8 8 11 6 7 8 7 11 16 9 7 10 11 8 7 10 12 13 16 19 21 17 9 8 6 4 4 16 13 9 11 21 22 18 9 8
20 21 23 21 18 18 17 17 16 15 16 18 14 13 7 6 9 8 12 13 13 14 14 11 14 14 15 15 19 24 27 28 29 25 24 9 6 3 9 3 8 3 8 5 11 12 12
20 20 20 22 23 22 22 22 21 19 18 16 20 21 8 4 12 12 17 19 21 21 21 23 22 20 15 10 5 6 4 6 12 22 19 18 7 5 4 7 12 13 7 6 6 6 12
17 19 20 20 22 22 22 22 23 22 22 24 24 19 16 5 8 21 20 20 10 13 13 23 14 13 6 4 3 5 4 5 6 3 3 4 11 6 3 5 7 6 10 16 9 4 14
16 17 19 19 21 22 23 24 23 23 22 22 23 16 16 11 21 19 9 8 9 4 5 4 4 6 9 5 5 5 6 3 5 6 4 3 3 9 11 5 1 11 19 11 3 5 12
15 15 16 17 19 20 20 20 21 21 21 21 21 15 16 17 25 20 25 18 12 8 5 4 2 5 3 5 4 4 4 4 3 3 1 3 3 5 5 7 7 27 4 4 5 7 11
17 17 17 18 18 18 18 18 18 17 16 14 20 18 18 25 21 14 21 29 26 28 16 9 6 4 7 3 2 1 3 3 2 4 6 4 3 2 4 3 9 14 13 9 9 9 12
Wind_Direction
34 35 37 39 39 37 36 34 33 34 37 39 48 61 69 78 94 107 115 117 121 108 78 68 43 15 46 56 19 350 22 34 37 44 60 26 57 100 107 99 93 67 161 208 221 240 258
35 36 38 39 40 39 37 35 34 34 37 40 41 47 58 77 96 108 117 120 110 122 121 43 0 30 47 303 339 8 31 41 45 53 41 53 75 88 92 67 319 85 209 231 229 253 259
38 36 38 38 37 36 35 34 32 32 32 34 36 45 58 78 99 113 127 120 116 153 233 317 349 329 36 49 10 8 16 28 31 36 38 68 132 359 144 151 136 244 259 214 225 240 273
41 39 38 38 37 35 33 30 28 27 29 30 30 34 36 60 103 140 150 144 300 295 283 290 299 294 301 358 16 359 347 354 17 45 45 81 87 86 31 144 216 264 242 305 139 207 183
38 38 37 37 35 34 32 29 25 23 22 23 26 29 27 31 20 213 218 270 24 320 249 0 323 253 262 305 358 352 325 310 294 306 8 30 57 131 181 260 218 207 323 325 322 180 292
34 34 33 33 32 32 30 27 24 21 19 17 14 14 7 346 337 278 257 248 273 318 272 269 291 238 264 305 311 350 321 323 295 286 292 276 231 245 259 336 349 326 321 323 312 337 266
30 28 28 27 25 26 27 25 23 21 17 14 12 5 355 338 298 321 270 269 283 262 326 148 64 311 329 305 299 349 342 293 300 244 278 342 261 345 19 12 343 313 302 304 315 22 303
15 22 19 19 19 19 19 21 21 20 17 13 10 6 358 347 332 322 274 226 249 180 239 185 63 0 317 337 287 349 2 279 275 280 297 228 279 66 58 293 288 293 301 312 352 13 311
358 9 8 9 12 13 13 12 15 16 15 12 10 7 4 3 344 355 323 224 201 197 268 208 244 268 278 334 283 320 16 324 313 257 319 291 64 141 239 267 291 297 297 322 314 318 273
339 349 352 357 2 5 5 6 7 11 12 12 9 6 5 6 359 357 42 119 113 294 259 133 191 243 311 331 244 306 358 2 228 303 303 289 129 244 263 277 281 301 55 300 303 322 310
316 326 337 342 348 353 358 359 360 3 7 8 7 5 4 9 356 9 64 103 352 60 295 95 153 279 306 273 319 217 329 272 279 299 255 80 216 232 260 279 189 317 322 299 304 285 304
299 310 321 329 335 341 347 352 354 354 358 0 3 2 0 1 8 18 40 330 322 234 252 165 272 283 277 209 226 292 235 229 234 262 231 279 95 252 313 264 237 310 285 260 268 266 246
295 299 306 315 324 331 339 345 346 347 349 351 353 354 351 352 344 346 332 329 256 243 114 127 293 307 307 255 246 250 237 221 250 274 236 179 212 158 228 266 198 253 309 303 250 225 282
292 295 300 306 313 322 330 336 339 341 344 342 343 345 345 349 349 342 335 249 260 65 294 105 258 265 250 189 203 230 253 259 214 229 290 279 257 194 165 264 319 311 300 278 299 306 304
291 295 299 304 308 313 323 328 334 337 339 341 338 337 336 342 347 347 318 263 321 3 11 322 265 252 206 203 277 263 231 277 323 201 240 274 244 132 173 300 293 135 225 34 285 271 276
290 295 298 301 306 311 320 321 328 332 336 337 338 329 294 312 332 330 273 276 329 22 342 301 279 312 303 13 259 237 264 121 170 207 242 12 282 165 113 189 210 250 6 240 203 276 279
292 297 301 306 309 312 318 318 327 330 334 338 336 317 282 316 320 268 255 290 298 234 228 248 298 286 277 300 271 283 288 145 194 175 228 284 229 184 172 203 214 183 216 213 309 262 258
294 296 299 303 307 311 314 315 322 328 334 338 339 289 301 324 272 235 262 329 312 259 219 252 279 273 268 299 270 270 263 249 171 176 212 201 294 267 274 82 6 301 267 220 209 204 241
294 295 293 293 296 302 307 311 317 324 334 344 322 283 289 314 274 248 182 265 263 235 233 203 245 231 239 262 282 247 250 96 199 201 225 173 224 298 274 116 82 266 257 252 245 281 243
283 288 290 291 291 296 299 306 313 320 321 331 308 298 252 280 278 294 287 290 250 225 259 240 275 240 249 253 242 270 262 184 211 225 199 175 247 244 258 280 300 256 229 231 218 228 259
271 277 277 281 283 282 288 295 302 309 316 327 253 280 272 276 252 299 286 290 279 287 224 241 235 242 259 274 275 261 271 279 213 198 188 208 237 247 250 261 275 271 267 251 219 230 240
265 263 266 272 276 280 282 286 286 288 293 282 275 279 276 281 271 272 265 262 279 284 284 274 253 282 299 261 272 304 305 293 289 160 191 180 249 249 260 262 261 265 263 263 257 254 246
293 290 282 275 270 267 272 285 283 275 263 246 246 263 266 258 252 267 266 271 268 304 277 266 288 297 277 280 298 290 278 271 250 245 209 185 214 189 273 287 299 274 258 246 247 251 297
298 298 295 292 291 289 283 272 264 265 266 240 249 248 222 252 234 232 259 269 269 265 256 260 282 267 274 294 292 283 271 263 259 252 233 204 200 188 276 248 251 281 41 8 86 54 21
292 291 288 289 282 280 281 278 271 264 264 270 269 258 229 250 222 241 254 264 275 266 263 261 267 270 286 299 281 283 269 253 243 248 241 227 191 233 242 226 286 298 32 27 355 74 27
304 299 291 289 286 285 277 272 273 269 266 260 265 264 253 269 227 245 254 262 258 264 276 272 255 259 247 229 212 246 239 298 278 224 56 267 250 213 185 252 264 66 338 349 311 171 18
319 314 309 304 295 290 285 280 276 272 268 268 263 261 260 253 262 239 228 239 226 221 267 304 255 234 209 201 224 223 250 236 251 247 210 192 213 228 233 255 192 351 315 314 205 19 8
322 320 320 316 310 306 298 291 283 275 269 270 265 248 254 262 271 254 247 243 226 225 242 231 263 207 215 230 221 195 239 211 255 303 229 228 264 215 216 222 237 357 27 359 360 7 8
320 320 320 317 316 315 313 307 302 287 276 281 277 269 258 260 264 268 258 247 247 256 259 223 218 178 219 237 267 280 246 220 233 271 196 232 347 331 11 66 87 52 66 50 21 18 3
Height
1559 1555 1552 1549 1547 1544 1541 1539 1535 1533 1530 1528 1527 1526 1525 1524 1524 1524 1524 1524 1525 1525 1525 1524 1523 1522 1522 1523 1523 1520 1518 1516 1515 1513 1513 1513 1512 1512 1509 1511 1511 1509 1514 1515 1515 1516 1515
1561 1558 1555 1552 1549 1547 1544 1541 1538 1536 1533 1531 1529 1528 1527 1527 1526 1526 1526 1526 1526 1526 1525 1525 1524 1523 1522 1523 1522 1520 1518 1517 1516 1515 1514 1514 1513 1513 1513 1513 1511 1513 1513 1513 1514 1513 1513
1564 1560 1557 1555 1552 1549 1546 1543 1541 1538 1535 1533 1531 1530 1529 1528 1528 1527 1527 1527 1527 1527 1526 1525 1525 1524 1525 1526 1521 1520 1519 1518 1517 1516 1515 1514 1513 1514 1514 1513 1514 1513 1511 1510 1511 1511 1511
1566 1563 1561 1558 1555 1552 1549 1546 1543 1540 1537 1535 1532 1531 1529 1528 1528 1528 1528 1527 1527 1527 1526 1525 1525 1524 1525 1523 1521 1520 1519 1518 1517 1517 1516 1515 1514 1515 1515 1515 1514 1510 1509 1503 1505 1509 1509
1568 1566 1564 1561 1558 1555 1552 1548 1545 1542 1539 1536 1534 1532 1531 1529 1529 1528 1528 1528 1527 1526 1526 1525 1525 1525 1525 1523 1522 1520 1519 1519 1518 1517 1516 1515 1515 1516 1516 1510 1506 1506 1503 1501 1501 1507 1509
1570 1569 1566 1563 1560 1557 1554 1551 1548 1544 1541 1538 1535 1533 1531 1529 1529 1528 1528 1528 1527 1526 1525 1525 1525 1528 1525 1525 1522 1520 1518 1518 1518 1517 1517 1516 1515 1510 1506 1504 1506 1510 1506 1502 1503 1502 1506
1572 1570 1568 1566 1563 1560 1557 1553 1549 1546 1542 1539 1536 1534 1531 1529 1528 1528 1527 1527 1530 1529 1526 1525 1525 1525 1524 1523 1522 1520 1518 1517 1517 1517 1513 1514 1510 1510 1513 1515 1514 1514 1510 1504 1495 1500 1506
1573 1571 1570 1567 1565 1562 1559 1555 1551 1548 1544 1540 1537 1535 1532 1529 1528 1527 1526 1527 1526 1527 1526 1524 1524 1524 1523 1522 1522 1520 1518 1520 1516 1512 1514 1513 1507 1515 1518 1517 1516 1512 1507 1496 1498 1504 1505
1574 1572 1571 1568 1566 1563 1560 1557 1553 1549 1545 1541 1538 1535 1532 1529 1528 1527 1525 1526 1526 1526 1525 1525 1523 1524 1524 1523 1521 1520 1519 1518 1516 1513 1514 1511 1513 1517 1517 1513 1512 1504 1505 1503 1510 1503 1490
1574 1573 1571 1569 1567 1564 1561 1558 1554 1551 1547 1543 1539 1536 1533 1530 1531 1527 1527 1526 1526 1526 1521 1523 1524 1524 1523 1521 1521 1519 1518 1520 1517 1514 1514 1511 1516 1516 1514 1512 1512 1510 1509 1512 1511 1509 1492
1574 1573 1572 1570 1568 1565 1562 1559 1555 1552 1548 1544 1540 1537 1534 1531 1530 1528 1529 1527 1527 1527 1535 1526 1523 1522 1521 1523 1522 1519 1518 1518 1515 1513 1517 1508 1513 1514 1513 1507 1512 1506 1512 1511 1511 1508 1501
1573 1572 1571 1569 1567 1565 1562 1559 1556 1552 1548 1545 1541 1537 1535 1533 1531 1529 1528 1527 1528 1527 1541 1521 1522 1521 1520 1519 1519 1518 1518 1518 1517 1516 1515 1511 1516 1515 1510 1513 1513 1512 1508 1500 1506 1504 1503
1573 1571 1570 1568 1566 1564 1562 1559 1555 1552 1548 1545 1541 1538 1535 1533 1532 1530 1529 1528 1525 1526 1522 1521 1520 1521 1520 1516 1516 1517 1515 1513 1511 1513 1505 1508 1509 1513 1515 1512 1512 1511 1501 1498 1496 1496 1484
1571 1569 1568 1567 1565 1562 1560 1558 1554 1551 1548 1545 1542 1538 1535 1533 1532 1530 1529 1527 1529 1519 1516 1521 1521 1519 1519 1515 1513 1514 1511 1507 1510 1511 1507 1505 1507 1509 1511 1509 1508 1507 1508 1506 1505 1490 1481
1568 1567 1566 1565 1563 1560 1559 1556 1554 1551 1547 1544 1541 1537 1535 1533 1532 1531 1531 1524 1518 1518 1522 1521 1517 1516 1510 1515 1518 1512 1506 1501 1501 1508 1508 1502 1500 1510 1512 1512 1513 1509 1509 1508 1504 1486 1494
1566 1565 1564 1562 1560 1559 1557 1555 1552 1549 1546 1543 1540 1536 1533 1533 1532 1531 1529 1524 1521 1525 1525 1524 1519 1514 1511 1507 1515 1511 1499 1500 1505 1508 1510 1503 1505 1504 1512 1513 1513 1511 1510 1507 1508 1505 1481
1564 1563 1562 1560 1558 1557 1555 1553 1550 1548 1545 1542 1540 1536 1532 1531 1530 1530 1525 1519 1523 1525 1526 1525 1519 1518 1512 1513 1512 1508 1502 1504 1506 1510 1511 1507 1507 1502 1509 1505 1494 1512 1506 1509 1508 1502 1502
1562 1561 1560 1559 1557 1555 1553 1551 1549 1547 1545 1542 1540 1536 1531 1530 1531 1527 1522 1525 1527 1524 1525 1524 1523 1519 1515 1512 1510 1507 1502 1498 1505 1507 1507 1505 1502 1498 1489 1496 1499 1498 1493 1494 1508 1499 1496
1560 1559 1558 1556 1555 1553 1552 1551 1549 1547 1545 1543 1541 1536 1530 1530 1525 1519 1524 1525 1525 1524 1523 1522 1519 1519 1518 1516 1514 1502 1502 1504 1505 1505 1502 1505 1501 1503 1487 1498 1502 1501 1497 1501 1505 1507 1496
1557 1556 1555 1554 1553 1552 1550 1548 1547 1546 1545 1545 1543 1535 1530 1528 1527 1526 1523 1521 1521 1522 1521 1521 1517 1518 1516 1512 1510 1503 1504 1504 1506 1506 1506 1505 1499 1499 1501 1486 1488 1505 1504 1500 1507 1501 1481
1551 1551 1551 1550 1549 1548 1547 1546 1545 1545 1543 1544 1543 1534 1533 1525 1524 1527 1527 1521 1520 1518 1520 1519 1514 1514 1510 1508 1502 1500 1500 1501 1504 1504 1506 1505 1508 1504 1496 1492 1489 1484 1484 1486 1492 1487 1485
1546 1545 1545 1544 1544 1544 1543 1542 1541 1541 1541 1541 1540 1537 1534 1530 1528 1527 1524 1519 1517 1514 1515 1513 1514 1510 1510 1508 1506 1506 1504 1503 1499 1505 1506 1507 1503 1504 1491 1488 1484 1475 1473 1467 1463 1463 1462
1542 1542 1541 1540 1539 1539 1539 1538 1538 1537 1537 1536 1534 1534 1534 1527 1524 1524 1519 1514 1512 1515 1513 1510 1512 1513 1510 1508 1507 1506 1505 1503 1500 1499 1504 1506 1504 1502 1478 1477 1477 1470 1453 1449 1447 1453 1458
1538 1538 1538 1536 1535 1534 1534 1533 1534 1534 1532 1530 1529 1530 1530 1521 1521 1519 1515 1515 1514 1513 1512 1509 1509 1509 1507 1505 1503 1500 1495 1490 1488 1482 1486 1493 1496 1495 1478 1481 1470 1440 1450 1449 1455 1475 1480
1534 1533 1532 1531 1530 1529 1529 1529 1528 1528 1527 1525 1525 1525 1521 1515 1514 1513 1512 1509 1508 1508 1506 1504 1503 1503 1503 1503 1502 1496 1487 1481 1468 1467 1470 1474 1485 1484 1477 1467 1445 1441 1464 1467 1464 1483 1489
1530 1529 1528 1526 1525 1523 1522 1522 1522 1522 1521 1520 1519 1519 1517 1513 1506 1508 1507 1505 1504 1502 1499 1497 1498 1498 1498 1499 1499 1492 1485 1470 1466 1462 1473 1475 1472 1477 1474 1464 1447 1469 1476 1474 1473 1472 1494
1527 1525 1524 1522 1520 1518 1516 1516 1516 1517 1516 1515 1513 1516 1514 1507 1499 1503 1501 1499 1499 1498 1495 1495 1495 1494 1494 1493 1491 1489 1480 1476 1471 1466 1464 1472 1473 1468 1465 1459 1458 1490 1483 1476 1464 1487 1498
1525 1523 1521 1518 1516 1514 1512 1510 1509 1509 1509 1508 1507 1511 1509 1501 1494 1494 1495 1493 1490 1493 1491 1492 1492 1488 1491 1487 1481 1479 1475 1470 1472 1465 1467 1467 1462 1461 1457 1450 1446 1489 1480 1480 1501 1498 1498
1521 1520 1518 1515 1512 1510 1508 1506 1505 1503 1503 1502 1501 1504 1504 1499 1488 1486 1484 1487 1486 1488 1488 1485 1483 1485 1484 1483 1482 1479 1477 1476 1470 1459 1458 1461 1476 1469 1484 1486 1499 1498 1501 1502 1503 1500 1499